1505800800.39,44460,13.44,73570.5,-0.95,-5.65,-5.51,0,*69
1505800801.61,44461,13.44,73568.0,-0.95,-5.73,-5.51,0,*6F
1505800802.84,44462,13.44,73568.0,-0.93,-5.73,-5.47,0,*6D
1505800804.05,44463,13.44,73568.5,-0.95,-5.61,-5.47,0,*69
1505800805.27,44464,13.44,73568.8,-0.95,-5.73,-5.47,0,*6D
1505800806.48,44465,13.44,73572.5,-0.95,-5.61,-5.47,0,*6F
1505800807.72,44466,13.44,73568.3,-0.93,-5.65,-5.47,0,*6E
1505800808.94,44467,13.44,73568.3,-0.95,-5.65,-5.51,0,*6E
1505800810.18,44468,13.44,73570.8,-0.93,-5.65,-5.47,0,*60
1505800811.43,44469,13.44,73566.5,-0.93,-5.65,-5.51,0,*66
1505800812.64,44470,13.44,73570.5,-0.95,-5.61,-5.51,0,*6C
1505800813.86,44471,13.44,73566.8,-0.95,-5.73,-5.51,0,*6E
1505800815.1,44472,13.44,73566.5,-0.93,-5.65,-5.51,0,*6C
1505800816.32,44473,13.44,73570.3,-0.95,-5.65,-5.51,0,*6B
1505800817.52,44474,13.44,73570.3,-0.95,-5.51,-5.51,0,*6B
1505800818.76,44475,13.44,73568.0,-0.93,-5.65,-5.47,0,*6C
1505800819.96,44476,13.44,73574.5,-0.95,-5.51,-5.47,0,*6E
1505800821.17,44477,13.44,73570.8,-0.95,-5.65,-5.47,0,*68
1505800822.42,44478,13.44,73572.5,-0.93,-5.65,-5.51,0,*66
1505800823.65,44479,13.44,73574.0,-0.93,-5.61,-5.47,0,*64
1505800824.87,44480,13.44,73568.5,-0.93,-5.51,-5.51,0,*66
1505800826.09,44481,13.44,73570.8,-0.95,-5.61,-5.47,0,*65
1505800827.36,44482,13.44,73570.3,-0.93,-5.61,-5.61,0,*64
1505800828.6,44483,13.44,73570.5,-0.95,-5.65,-5.61,0,*67
1505800829.87,44484,13.44,73564.0,-0.93,-5.65,-5.61,0,*66
1505800831.09,44485,13.44,73572.0,-0.93,-5.51,-5.47,0,*64
1505800832.28,44486,13.44,73572.5,-0.95,-5.47,-5.47,0,*66
1505800833.55,44487,13.44,73570.5,-0.93,-5.73,-5.61,0,*62
1505800834.8,44488,13.44,73570.0,-0.95,-5.65,-5.61,0,*6C
1505800836.07,44489,13.44,73570.8,-0.93,-5.65,-5.61,0,*6B
1505800837.32,44490,13.44,73570.3,-0.95,-5.65,-5.61,0,*65
1505800838.59,44491,13.44,73568.0,-0.93,-5.65,-5.61,0,*62
1505800839.83,44492,13.44,73568.5,-0.95,-5.73,-5.61,0,*60
1505800841.07,44493,13.44,73568.5,-0.95,-5.65,-5.61,0,*66
1505800842.27,44494,13.44,73574.3,-0.95,-5.51,-5.47,0,*62
1505800843.49,44495,13.44,73574.3,-0.93,-5.51,-5.39,0,*6C
1505800844.71,44496,13.44,73574.3,-0.93,-5.51,-5.51,0,*61
1505800845.9,44497,13.44,73570.3,-0.95,-5.51,-5.39,0,*68
1505800847.12,44498,13.44,73572.5,-0.93,-5.51,-5.51,0,*6F
1505800848.36,44499,13.44,73570.5,-0.93,-5.61,-5.51,0,*6D
1505800849.61,44500,13.44,73570.0,-0.93,-5.65,-5.51,0,*68
1505800850.83,44501,13.44,73570.3,-0.95,-5.65,-5.51,0,*6F
1505800852.09,44502,13.44,73568.3,-0.93,-5.61,-5.61,0,*6D
1505800853.31,44503,13.44,73570.8,-0.93,-5.51,-5.47,0,*6B
1505800854.55,44504,13.44,73568.5,-0.93,-5.61,-5.51,0,*68
1505800855.77,44505,13.44,73570.3,-0.93,-5.51,-5.51,0,*6A
1505800857.01,44506,13.44,73566.8,-0.93,-5.73,-5.51,0,*69
1505800858.25,44507,13.44,73570.5,-0.93,-5.61,-5.51,0,*6B
1505800859.47,44508,13.44,73568.0,-0.95,-5.65,-5.51,0,*66
1505800860.67,44509,13.44,73570.3,-0.91,-5.55,-5.47,0,*67
1505800861.86,44510,13.44,73570.3,-0.91,-5.47,-5.35,0,*69
1505800863.13,44511,13.44,73570.5,-0.93,-5.65,-5.61,0,*6B
1505800864.4,44512,13.44,73570.8,-0.93,-5.73,-5.61,0,*6F
1505800865.66,44513,13.44,73570.8,-0.93,-5.65,-5.65,0,*6D
1505800866.93,44514,13.44,73572.0,-0.93,-5.65,-5.61,0,*6E
1505800868.15,44515,13.44,73568.5,-0.93,-5.51,-5.47,0,*6C
1505800869.37,44516,13.44,73572.8,-0.95,-5.65,-5.51,0,*69
1505800870.59,44517,13.44,73570.0,-0.95,-5.65,-5.47,0,*6F
1505800871.83,44518,13.44,73568.0,-0.93,-5.61,-5.51,0,*65
1505800873.08,44519,13.44,73570.8,-0.91,-5.77,-5.61,0,*62
1505800874.32,44520,13.44,73570.0,-0.91,-5.69,-5.61,0,*67
1505800875.59,44521,13.44,73568.5,-0.93,-5.81,-5.81,0,*6C
1505800876.84,44522,13.44,73568.5,-0.91,-5.61,-5.61,0,*6D
1505800878.1,44523,13.44,73570.3,-0.93,-5.77,-5.65,0,*6D
1505800879.37,44524,13.44,73568.5,-0.93,-5.73,-5.61,0,*6A
1505800880.64,44525,13.44,73568.5,-0.93,-5.65,-5.61,0,*6C
1505800881.87,44526,13.44,73570.3,-0.95,-5.73,-5.77,0,*69
1505800883.07,44527,13.44,73568.8,-0.91,-5.47,-5.55,0,*6B
1505800884.27,44528,13.44,73568.3,-0.91,-5.55,-5.47,0,*64
1505800885.51,44529,13.44,73572.0,-0.91,-5.77,-5.61,0,*61
1505800886.78,44530,13.44,73568.0,-0.93,-5.65,-5.61,0,*68
1505800888.05,44531,13.44,73568.3,-0.93,-5.61,-5.61,0,*6D
1505800889.32,44532,13.44,73566.3,-0.93,-5.65,-5.61,0,*6A
1505800890.59,44533,13.44,73570.5,-0.93,-5.65,-5.61,0,*6B
1505800891.86,44534,13.44,73570.5,-0.93,-5.65,-5.61,0,*6C
1505800893.13,44535,13.44,73572.5,-0.93,-5.61,-5.61,0,*69
1505800894.33,44536,13.44,73572.8,-0.95,-5.51,-5.51,0,*6C
1505800895.57,44537,13.44,73572.8,-0.95,-5.61,-5.61,0,*6D
1505800896.82,44538,13.44,73570.3,-0.93,-5.61,-5.51,0,*67
1505800898.08,44539,13.44,73574.5,-0.93,-5.77,-5.65,0,*66
1505800899.35,44540,13.44,73570.3,-0.93,-5.65,-5.65,0,*6B
1505800900.59,44541,13.44,73568.5,-0.93,-5.61,-5.51,0,*69
1505800901.85,44542,13.44,73570.3,-0.93,-5.73,-5.61,0,*6A
1505800903.09,44543,13.44,73568.3,-0.95,-5.73,-5.65,0,*69
1505800904.36,44544,13.44,73574.5,-0.93,-5.65,-5.65,0,*6F
1505800905.63,44545,13.44,73570.5,-0.93,-5.65,-5.61,0,*6A
1505800906.89,44546,13.44,73570.8,-0.93,-5.61,-5.61,0,*6D
1505800908.14,44547,13.44,73570.3,-0.95,-5.61,-5.61,0,*6A
1505800909.39,44548,13.44,73570.5,-0.95,-5.65,-5.61,0,*61
1505800910.63,44549,13.44,73574.3,-0.93,-5.61,-5.51,0,*61
1505800911.88,44550,13.44,73568.5,-0.91,-5.69,-5.61,0,*60
1505800913.1,44551,13.44,73570.3,-0.91,-5.61,-5.55,0,*6E
1505800914.29,44552,13.44,73568.3,-0.91,-5.55,-5.47,0,*69
1505800915.49,44553,13.44,73568.8,-0.91,-5.55,-5.47,0,*68
1505800916.75,44554,13.44,73568.5,-0.93,-5.73,-5.65,0,*69
1505800917.99,44555,13.44,73572.3,-0.95,-5.65,-5.65,0,*69
1505800919.26,44556,13.44,73572.0,-0.93,-5.61,-5.61,0,*6C
1505800920.53,44557,13.44,73570.5,-0.93,-5.61,-5.61,0,*6D
1505800921.8,44558,13.44,73572.0,-0.93,-5.65,-5.61,0,*66
1505800923.07,44559,13.44,73572.8,-0.93,-5.65,-5.61,0,*67
1505800924.34,44560,13.44,73568.5,-0.93,-5.65,-5.61,0,*6D
1505800925.58,44561,13.44,73570.3,-0.93,-5.61,-5.47,0,*6C
1505800926.84,44562,13.44,73568.8,-0.93,-5.73,-5.65,0,*6C
1505800928.08,44563,13.44,73568.0,-0.95,-5.73,-5.61,0,*6F
1505800929.34,44564,13.44,73570.5,-0.93,-5.73,-5.65,0,*6A
1505800930.58,44565,13.44,73570.3,-0.95,-5.73,-5.61,0,*69
1505800931.85,44566,13.44,73570.8,-0.93,-5.77,-5.61,0,*68
1505800933.07,44567,13.44,73570.3,-0.93,-5.51,-5.51,0,*6E
1505800934.31,44568,13.44,73568.8,-0.93,-5.61,-5.47,0,*65
1505800935.53,44569,13.44,73572.8,-0.93,-5.51,-5.39,0,*6E
1505800936.74,44570,13.44,73570.5,-0.93,-5.39,-5.35,0,*64
1505800937.96,44571,13.44,73570.3,-0.93,-5.47,-5.35,0,*6C
1505800939.18,44572,13.44,73568.0,-0.91,-5.35,-5.31,0,*6C
1505800940.39,44573,13.44,73572.5,-0.91,-5.35,-5.31,0,*6D
1505800941.59,44574,13.44,73572.0,-0.91,-5.47,-5.43,0,*6A
1505800942.78,44575,13.44,73570.3,-0.91,-5.47,-5.47,0,*6F
1505800944.02,44576,13.44,73570.8,-0.93,-5.61,-5.51,0,*6D
1505800945.21,44577,13.44,73570.0,-0.91,-5.47,-5.43,0,*69
1505800946.43,44578,13.44,73570.5,-0.91,-5.69,-5.47,0,*6E
1505800947.65,44579,13.44,73572.3,-0.91,-5.61,-5.47,0,*67
1505800948.84,44580,13.44,73568.0,-0.91,-5.47,-5.43,0,*61
1505800950.05,44581,13.44,73568.0,-0.93,-5.51,-5.39,0,*68
1505800951.25,44582,13.44,73570.8,-0.91,-5.55,-5.47,0,*64
1505800952.45,44583,13.44,73574.3,-0.91,-5.55,-5.47,0,*65
1505800953.64,44584,13.44,73568.3,-0.91,-5.47,-5.47,0,*61
1505800954.83,44585,13.44,73570.3,-0.91,-5.47,-5.43,0,*64
1505800956.05,44586,13.44,73572.5,-0.89,-5.55,-5.47,0,*69
1505800957.29,44587,13.5,73572.8,-0.89,-5.61,-5.47,0,*6F
1505800958.48,44588,13.44,73570.5,-0.91,-5.55,-5.47,0,*6E
1505800959.68,44589,13.44,73568.5,-0.91,-5.55,-5.47,0,*6F
1505800960.9,44590,13.44,73570.8,-0.91,-5.61,-5.55,0,*63
1505800962.12,44591,13.44,73566.8,-0.91,-5.61,-5.47,0,*61
1505800963.31,44592,13.44,73568.3,-0.91,-5.55,-5.47,0,*65
1505800964.5,44593,13.44,73570.0,-0.91,-5.47,-5.43,0,*63
1505800965.7,44594,13.5,73574.0,-0.91,-5.47,-5.43,0,*64
1505800966.91,44595,13.44,73568.0,-0.89,-5.47,-5.43,0,*6C
1505800968.11,44596,13.44,73568.5,-0.91,-5.55,-5.43,0,*65
1505800969.3,44597,13.44,73570.3,-0.91,-5.47,-5.43,0,*67
1505800970.49,44598,13.44,73572.5,-0.91,-5.47,-5.35,0,*69
1505800971.71,44599,13.44,73574.5,-0.91,-5.47,-5.31,0,*6C
1505800972.9,44600,13.44,73570.8,-0.91,-5.47,-5.47,0,*6E
1505800974.1,44601,13.44,73570.5,-0.91,-5.55,-5.47,0,*6C
1505800975.32,44602,13.44,73574.0,-0.91,-5.61,-5.47,0,*68
1505800976.51,44603,13.44,73568.8,-0.91,-5.47,-5.43,0,*69
1505800977.72,44604,13.44,73572.5,-0.89,-5.47,-5.35,0,*66
1505800978.92,44605,13.5,73572.8,-0.91,-5.47,-5.35,0,*6E
1505800980.13,44606,13.44,73568.8,-0.91,-5.35,-5.31,0,*6C
1505800981.37,44607,13.44,73570.0,-0.89,-5.43,-5.31,0,*65
1505800982.58,44608,13.44,73570.3,-0.89,-5.43,-5.35,0,*6E
1505800983.77,44609,13.44,73568.3,-0.91,-5.43,-5.35,0,*66
1505800985.0,44610,13.44,73568.0,-0.89,-5.43,-5.31,0,*63
1505800986.24,44611,13.44,73566.8,-0.89,-5.43,-5.31,0,*62
1505800987.45,44612,13.44,73570.3,-0.89,-5.35,-5.35,0,*64
1505800988.69,44613,13.44,73570.8,-0.89,-5.43,-5.31,0,*60
1505800989.92,44614,13.44,73568.5,-0.89,-5.43,-5.31,0,*67
1505800991.16,44615,13.5,73574.3,-0.89,-5.43,-5.31,0,*66
1505800992.4,44616,13.44,73568.0,-0.89,-5.35,-5.19,0,*6E
1505800993.64,44617,13.5,73574.0,-0.89,-5.43,-5.23,0,*67
1505800994.89,44618,13.44,73572.0,-0.83,-5.35,-5.27,0,*67
1505800996.13,44619,13.44,73570.0,-0.89,-5.43,-5.31,0,*6A
1505800997.36,44620,13.44,73566.0,-0.89,-5.43,-5.31,0,*60
1505800998.57,44621,13.44,73570.8,-0.85,-5.43,-5.39,0,*65
1505800999.78,44622,13.44,73570.3,-0.85,-5.39,-5.39,0,*6B
1505801001.02,44623,13.44,73570.3,-0.85,-5.43,-5.27,0,*68
1505801002.29,44624,13.44,73568.8,-0.85,-5.31,-5.27,0,*6A
1505801003.54,44625,13.44,73568.0,-0.83,-5.35,-5.23,0,*6D
1505801004.82,44626,13.5,73572.3,-0.83,-5.27,-5.23,0,*6D
1505801006.06,44627,13.44,73568.5,-0.85,-5.39,-5.27,0,*61
1505801007.27,44628,13.5,73570.0,-0.85,-5.51,-5.43,0,*62
1505801008.51,44629,13.44,73570.0,-0.85,-5.43,-5.31,0,*65
1505801009.75,44630,13.44,73568.5,-0.85,-5.39,-5.31,0,*60
1505801010.99,44631,13.44,73570.5,-0.85,-5.39,-5.27,0,*66
1505801012.23,44632,13.5,73574.8,-0.85,-5.39,-5.31,0,*62
1505801013.47,44633,13.5,73570.0,-0.85,-5.39,-5.27,0,*64
1505801014.69,44634,13.44,73568.8,-0.83,-5.39,-5.35,0,*66
1505801015.9,44635,13.44,73566.8,-0.85,-5.43,-5.39,0,*60
1505801017.14,44636,13.44,73568.3,-0.85,-5.39,-5.27,0,*61
1505801018.38,44637,13.44,73566.8,-0.85,-5.39,-5.31,0,*67
1505801019.63,44638,13.44,73570.0,-0.83,-5.35,-5.27,0,*65
1505801020.87,44639,13.5,73570.0,-0.85,-5.39,-5.27,0,*6E
1505801022.11,44640,13.5,73568.3,-0.85,-5.39,-5.27,0,*60
1505801023.35,44641,13.5,73574.0,-0.85,-5.43,-5.31,0,*6B
1505801024.58,44642,13.5,73570.5,-0.85,-5.43,-5.31,0,*68
1505801025.8,44643,13.5,73570.8,-0.83,-5.39,-5.35,0,*66
1505801027.01,44644,13.44,73568.8,-0.85,-5.43,-5.39,0,*66
1505801028.22,44645,13.44,73568.8,-0.85,-5.43,-5.39,0,*67
1505801029.43,44646,13.44,73570.8,-0.85,-5.39,-5.39,0,*69
1505801030.7,44647,13.5,73566.5,-0.83,-5.27,-5.27,0,*6E
1505801031.95,44648,13.44,73568.5,-0.83,-5.35,-5.23,0,*66
1505801033.17,44649,13.44,73568.8,-0.85,-5.51,-5.43,0,*65
1505801034.39,44650,13.5,73570.3,-0.83,-5.39,-5.35,0,*64
1505801035.63,44651,13.5,73568.0,-0.81,-5.27,-5.15,0,*6A
1505801036.88,44652,13.5,73572.5,-0.81,-5.27,-5.15,0,*69
1505801038.1,44653,13.44,73568.5,-0.81,-5.35,-5.23,0,*6E
1505801039.38,44654,13.5,73570.8,-0.83,-5.27,-5.27,0,*6C
1505801040.66,44655,13.44,73566.0,-0.83,-5.27,-5.23,0,*69
1505801041.91,44656,13.5,73566.3,-0.83,-5.35,-5.27,0,*6D
1505801043.13,44657,13.44,73566.5,-0.83,-5.35,-5.39,0,*63
1505801044.38,44658,13.5,73570.3,-0.83,-5.35,-5.23,0,*67
1505801045.63,44659,13.5,73566.3,-0.83,-5.35,-5.27,0,*62
1505801046.85,44660,13.44,73566.3,-0.83,-5.39,-5.35,0,*67
1505801048.07,44661,13.5,73568.0,-0.83,-5.47,-5.39,0,*63
1505801049.29,44662,13.44,73568.0,-0.83,-5.47,-5.39,0,*60
1505801050.51,44663,13.44,73564.8,-0.83,-5.47,-5.39,0,*61
1505801051.73,44664,13.5,73568.8,-0.83,-5.47,-5.39,0,*66
1505801052.93,44665,13.5,73566.8,-0.81,-5.39,-5.35,0,*60
1505801054.12,44666,13.5,73566.5,-0.81,-5.47,-5.39,0,*66
1505801055.33,44667,13.5,73570.8,-0.85,-5.43,-5.51,0,*69
1505801056.55,44668,13.5,73570.8,-0.83,-5.39,-5.39,0,*63
1505801057.77,44669,13.5,73566.5,-0.83,-5.47,-5.39,0,*6B
1505801059.02,44670,13.5,73568.3,-0.83,-5.61,-5.39,0,*67
1505801060.26,44671,13.5,73566.8,-0.83,-5.61,-5.47,0,*6F
1505801061.48,44672,13.5,73568.8,-0.83,-5.51,-5.47,0,*6F
1505801062.69,44673,13.5,73566.8,-0.85,-5.43,-5.39,0,*62
1505801063.94,44674,13.5,73570.3,-0.83,-5.39,-5.27,0,*61
1505801065.16,44675,13.5,73568.3,-0.83,-5.39,-5.35,0,*63
1505801066.36,44676,13.5,73570.5,-0.85,-5.43,-5.35,0,*6B
1505801067.57,44677,13.5,73568.3,-0.85,-5.43,-5.39,0,*66
1505801068.85,44678,13.5,73568.0,-0.83,-5.27,-5.15,0,*63
1505801070.06,44679,13.5,73568.3,-0.83,-5.39,-5.35,0,*6F
1505801071.34,44680,13.5,73568.3,-0.83,-5.27,-5.23,0,*61
1505801072.62,44681,13.5,73566.5,-0.83,-5.27,-5.27,0,*64
1505801073.84,44682,13.5,73568.3,-0.81,-5.35,-5.23,0,*62
1505801075.06,44683,13.5,73568.5,-0.83,-5.47,-5.39,0,*6F
1505801076.28,44684,13.5,73566.5,-0.85,-5.51,-5.47,0,*60
1505801077.5,44685,13.5,73566.8,-0.83,-5.39,-5.35,0,*6C
1505801078.72,44686,13.5,73566.3,-0.83,-5.39,-5.39,0,*63
1505801079.94,44687,13.5,73566.8,-0.83,-5.47,-5.39,0,*6B
1505801081.16,44688,13.5,73566.5,-0.83,-5.39,-5.35,0,*61
1505801082.38,44689,13.5,73562.8,-0.83,-5.47,-5.39,0,*65
1505801083.62,44690,13.5,73568.8,-0.83,-5.61,-5.51,0,*67
1505801084.9,44691,13.5,73570.3,-0.83,-5.65,-5.61,0,*61
1505801086.12,44692,13.5,73566.8,-0.83,-5.51,-5.39,0,*68
1505801087.35,44693,13.5,73568.3,-0.83,-5.47,-5.35,0,*62
1505801088.56,44694,13.5,73566.8,-0.85,-5.51,-5.43,0,*65
1505801089.78,44695,13.5,73568.8,-0.83,-5.39,-5.35,0,*6D
1505801091.01,44696,13.5,73572.3,-0.85,-5.43,-5.31,0,*61
1505801092.23,44697,13.5,73566.8,-0.83,-5.39,-5.35,0,*6F
1505801093.45,44698,13.5,73564.5,-0.83,-5.39,-5.35,0,*60
1505801094.67,44699,13.5,73566.8,-0.83,-5.39,-5.39,0,*6D
1505801095.89,44700,13.5,73564.5,-0.83,-5.39,-5.35,0,*60
1505801097.11,44701,13.5,73564.5,-0.83,-5.39,-5.39,0,*6D
1505801098.39,44702,13.5,73568.0,-0.83,-5.27,-5.23,0,*6A
1505801099.66,44703,13.5,73568.3,-0.83,-5.27,-5.11,0,*6A
1505801100.85,44704,13.5,73564.3,-0.81,-5.35,-5.39,0,*66
1505801102.07,44705,13.5,73566.5,-0.81,-5.61,-5.47,0,*6F
1505801103.26,44706,13.5,73568.8,-0.81,-5.39,-5.35,0,*64
1505801104.45,44707,13.5,73564.3,-0.81,-5.39,-5.39,0,*69
1505801105.64,44708,13.5,73562.8,-0.81,-5.39,-5.35,0,*6A
1505801106.84,44709,13.5,73566.5,-0.81,-5.39,-5.39,0,*67
1505801108.03,44710,13.5,73564.8,-0.81,-5.39,-5.35,0,*63
1505801109.22,44711,13.5,73564.8,-0.81,-5.39,-5.35,0,*62
1505801110.41,44712,13.5,73568.0,-0.81,-5.39,-5.35,0,*61
1505801111.64,44713,13.5,73564.5,-0.81,-5.39,-5.27,0,*63
1505801112.86,44714,13.5,73568.5,-0.81,-5.35,-5.27,0,*68
1505801114.09,44715,13.5,73568.0,-0.81,-5.35,-5.23,0,*6D
1505801115.31,44716,13.5,73566.3,-0.81,-5.35,-5.27,0,*6A
1505801116.56,44717,13.5,73566.8,-0.81,-5.27,-5.23,0,*6C
1505801117.78,44718,13.5,73570.5,-0.81,-5.35,-5.23,0,*60
1505801119.03,44719,13.5,73572.3,-0.81,-5.27,-5.23,0,*62
1505801120.25,44720,13.5,73570.0,-0.79,-5.43,-5.35,0,*6A
1505801121.44,44721,13.5,73568.0,-0.81,-5.39,-5.39,0,*6D
1505801122.63,44722,13.5,73566.5,-0.81,-5.39,-5.39,0,*6E
1505801123.83,44723,13.5,73564.5,-0.81,-5.51,-5.39,0,*61
1505801125.08,44724,13.5,73568.0,-0.81,-5.65,-5.61,0,*6C
1505801126.27,44725,13.5,73568.0,-0.81,-5.51,-5.47,0,*6E
1505801127.47,44726,13.5,73570.0,-0.81,-5.51,-5.47,0,*6D
1505801128.67,44727,13.5,73570.5,-0.81,-5.51,-5.47,0,*6C
1505801129.86,44728,13.5,73570.0,-0.81,-5.51,-5.51,0,*64
1505801131.08,44729,13.5,73564.0,-0.81,-5.61,-5.47,0,*61
1505801132.27,44730,13.5,73568.5,-0.81,-5.39,-5.39,0,*6D
1505801133.52,44731,13.5,73572.0,-0.81,-5.61,-5.61,0,*6C
1505801134.74,44732,13.5,73566.3,-0.81,-5.61,-5.51,0,*6C
1505801135.95,44733,13.5,73566.5,-0.81,-5.61,-5.47,0,*6A
1505801137.2,44734,13.5,73566.5,-0.83,-5.61,-5.47,0,*6F
1505801138.42,44735,13.5,73568.0,-0.83,-5.51,-5.47,0,*6D
1505801139.61,44736,13.5,73568.8,-0.81,-5.47,-5.39,0,*62
1505801140.81,44737,13.5,73568.5,-0.81,-5.47,-5.35,0,*6F
1505801142.01,44738,13.5,73564.5,-0.81,-5.51,-5.39,0,*6B
1505801143.2,44739,13.5,73566.0,-0.81,-5.51,-5.39,0,*6A
1505801144.42,44740,13.5,73566.5,-0.83,-5.39,-5.35,0,*64
1505801145.62,44741,13.5,73566.5,-0.81,-5.47,-5.51,0,*6C
1505801146.87,44742,13.5,73568.5,-0.83,-5.61,-5.51,0,*69
1505801148.14,44743,13.5,73566.3,-0.83,-5.69,-5.61,0,*63
1505801149.34,44744,13.5,73568.0,-0.81,-5.51,-5.47,0,*69
1505801150.54,44745,13.5,73566.0,-0.81,-5.51,-5.51,0,*6F
1505801151.73,44746,13.5,73568.3,-0.81,-5.47,-5.47,0,*6C
1505801152.93,44747,13.5,73566.8,-0.81,-5.47,-5.47,0,*6D
1505801154.12,44748,13.5,73568.0,-0.81,-5.39,-5.39,0,*62
1505801155.34,44749,13.5,73570.0,-0.83,-5.39,-5.39,0,*61
1505801156.59,44750,13.5,73566.3,-0.83,-5.35,-5.27,0,*6A
1505801157.81,44751,13.5,73564.0,-0.83,-5.47,-5.39,0,*61
1505801159.03,44752,13.5,73568.8,-0.83,-5.39,-5.35,0,*67
1505801160.22,44753,13.5,73566.8,-0.81,-5.39,-5.35,0,*64
1505801161.42,44754,13.5,73564.5,-0.81,-5.47,-5.47,0,*6F
1505801162.61,44755,13.5,73564.5,-0.81,-5.39,-5.39,0,*6E
1505801163.8,44756,13.5,73568.8,-0.81,-5.35,-5.35,0,*6D
1505801165.05,44757,13.5,73566.3,-0.79,-5.31,-5.39,0,*63
1505801166.29,44758,13.5,73566.5,-0.79,-5.31,-5.35,0,*60
1505801167.48,44759,13.5,73570.0,-0.81,-5.35,-5.35,0,*62
1505801168.71,44760,13.5,73568.3,-0.81,-5.35,-5.27,0,*6B
1505801169.93,44761,13.5,73568.5,-0.81,-5.31,-5.39,0,*61
1505801171.15,44762,13.5,73566.5,-0.81,-5.35,-5.27,0,*69
1505801172.37,44763,13.5,73570.8,-0.81,-5.35,-5.27,0,*68
1505801173.65,44764,13.5,73568.0,-0.79,-5.23,-5.23,0,*6B
1505801174.92,44765,13.5,73566.5,-0.79,-5.23,-5.19,0,*63
1505801176.2,44766,13.5,73568.8,-0.79,-5.31,-5.23,0,*6A
1505801177.48,44767,13.5,73572.5,-0.79,-5.31,-5.31,0,*68
1505801178.69,44768,13.5,73570.0,-0.79,-5.47,-5.47,0,*67
1505801179.88,44769,13.5,73566.8,-0.77,-5.35,-5.43,0,*69
1505801181.1,44770,13.5,73564.8,-0.79,-5.35,-5.35,0,*6E
1505801182.31,44771,13.5,73564.3,-0.79,-5.35,-5.35,0,*6F
1505801183.56,44772,13.5,73564.8,-0.79,-5.35,-5.31,0,*68
1505801184.83,44773,13.5,73566.0,-0.79,-5.31,-5.31,0,*6D
1505801186.07,44774,13.5,73568.0,-0.79,-5.31,-5.35,0,*6E
1505801187.29,44775,13.5,73568.8,-0.79,-5.35,-5.35,0,*6B
1505801188.51,44776,13.5,73570.3,-0.79,-5.35,-5.35,0,*68
1505801189.7,44777,13.5,73566.8,-0.81,-5.39,-5.39,0,*6E
1505801190.91,44778,13.5,73570.5,-0.79,-5.43,-5.35,0,*67
1505801192.13,44779,13.5,73568.8,-0.79,-5.35,-5.35,0,*67
1505801193.31,44780,13.5,73568.5,-0.77,-5.43,-5.35,0,*6E
1505801194.5,44781,13.5,73568.8,-0.77,-5.35,-5.35,0,*6E
1505801195.74,44782,13.5,73568.8,-0.79,-5.31,-5.35,0,*67
1505801196.96,44783,13.5,73572.0,-0.77,-5.31,-5.35,0,*68
1505801198.18,44784,13.5,73566.3,-0.75,-5.51,-5.51,0,*69
1505801199.39,44785,13.5,73568.3,-0.77,-5.55,-5.55,0,*6A
1505801200.58,44786,13.5,73568.5,-0.77,-5.55,-5.47,0,*6A
1505801201.78,44787,13.5,73566.8,-0.77,-5.55,-5.55,0,*68
1505801202.97,44788,13.5,73568.3,-0.77,-5.43,-5.47,0,*63
1505801204.16,44789,13.5,73570.8,-0.77,-5.35,-5.43,0,*67
1505801205.34,44790,13.5,73566.0,-0.77,-5.43,-5.43,0,*6E
1505801206.53,44791,13.5,73568.3,-0.77,-5.35,-5.43,0,*6E
1505801207.72,44792,13.5,73566.0,-0.77,-5.35,-5.35,0,*6C
1505801208.97,44793,13.5,73570.3,-0.77,-5.31,-5.31,0,*6D
1505801210.18,44794,13.5,73566.8,-0.77,-5.31,-5.35,0,*6E
1505801211.4,44795,13.5,73566.5,-0.77,-5.31,-5.35,0,*6F
1505801212.59,44796,13.5,73566.5,-0.77,-5.35,-5.35,0,*68
1505801213.78,44797,13.5,73564.8,-0.77,-5.35,-5.35,0,*69
1505801215.02,44798,13.5,73566.0,-0.77,-5.31,-5.31,0,*66
1505801216.3,44799,13.5,73570.8,-0.75,-5.31,-5.27,0,*62
1505801217.57,44800,13.5,73566.0,-0.75,-5.31,-5.31,0,*6A
1505801218.76,44801,13.5,73566.0,-0.77,-5.35,-5.35,0,*69
1505801219.95,44802,13.5,73566.5,-0.77,-5.35,-5.35,0,*6A
1505801221.14,44803,13.5,73566.5,-0.77,-5.35,-5.35,0,*6B
1505801222.38,44804,13.5,73568.8,-0.75,-5.31,-5.39,0,*66
1505801223.57,44805,13.5,73570.0,-0.77,-5.35,-5.35,0,*6D
1505801224.76,44806,13.5,73568.8,-0.77,-5.43,-5.43,0,*6E
1505801225.94,44807,13.5,73566.8,-0.77,-5.43,-5.43,0,*6F
1505801227.21,44808,13.5,73570.8,-0.75,-5.31,-5.31,0,*62
1505801228.4,44809,13.5,73566.8,-0.77,-5.35,-5.35,0,*61
1505801229.62,44810,13.5,73568.3,-0.75,-5.51,-5.43,0,*68
1505801230.87,44811,13.5,73566.0,-0.75,-5.61,-5.55,0,*6D
1505801232.11,44812,13.5,73568.5,-0.77,-5.61,-5.65,0,*6F
1505801233.3,44813,13.5,73568.0,-0.77,-5.47,-5.47,0,*6A
1505801234.48,44814,13.5,73570.5,-0.77,-5.43,-5.43,0,*6D
1505801235.67,44815,13.5,73568.0,-0.77,-5.35,-5.43,0,*6D
1505801236.91,44816,13.5,73564.5,-0.75,-5.31,-5.39,0,*65
1505801238.19,44817,13.5,73566.8,-0.75,-5.31,-5.27,0,*6B
1505801239.38,44818,13.5,73568.5,-0.77,-5.35,-5.35,0,*61
1505801240.65,44819,13.5,73568.8,-0.75,-5.31,-5.31,0,*62
1505801241.84,44820,13.5,73570.0,-0.77,-5.35,-5.35,0,*6A
1505801243.08,44821,13.5,73570.3,-0.75,-5.39,-5.31,0,*61
1505801244.27,44822,13.5,73564.5,-0.77,-5.35,-5.35,0,*68
1505801245.46,44823,13.5,73564.8,-0.77,-5.35,-5.35,0,*69
1505801246.71,44824,13.5,73564.5,-0.75,-5.39,-5.31,0,*64
1505801247.98,44825,13.5,73566.3,-0.75,-5.31,-5.31,0,*6D
1505801249.17,44826,13.5,73568.3,-0.77,-5.35,-5.35,0,*6C
1505801250.39,44827,13.5,73564.5,-0.75,-5.51,-5.55,0,*6B
1505801251.6,44828,13.5,73564.3,-0.77,-5.55,-5.55,0,*62
1505801252.81,44829,13.5,73570.5,-0.75,-5.43,-5.51,0,*62
1505801254.0,44830,13.5,73566.5,-0.77,-5.43,-5.43,0,*6B
1505801255.21,44831,13.5,73570.3,-0.75,-5.43,-5.39,0,*65
1505801256.46,44832,13.5,73566.3,-0.75,-5.55,-5.61,0,*6C
1505801257.7,44833,13.5,73570.0,-0.77,-5.77,-5.65,0,*6B
1505801258.93,44834,13.5,73568.5,-0.75,-5.51,-5.55,0,*69
1505801260.15,44835,13.5,73570.8,-0.75,-5.51,-5.43,0,*6F
1505801261.35,44836,13.5,73566.0,-0.77,-5.47,-5.55,0,*6E
1505801262.56,44837,13.5,73568.3,-0.75,-5.43,-5.43,0,*6E
1505801263.77,44838,13.5,73566.5,-0.75,-5.43,-5.51,0,*62
1505801264.96,44839,13.5,73570.5,-0.77,-5.43,-5.55,0,*65
1505801266.19,44840,13.5,73566.8,-0.75,-5.51,-5.55,0,*6A
1505801267.4,44841,13.5,73568.8,-0.75,-5.43,-5.43,0,*6F
1505801268.59,44842,13.5,73568.3,-0.77,-5.43,-5.47,0,*6A
1505801269.78,44843,13.5,73568.5,-0.77,-5.35,-5.47,0,*6A
1505801270.97,44844,13.5,73564.8,-0.77,-5.47,-5.55,0,*6B
1505801272.16,44845,13.5,73568.3,-0.77,-5.35,-5.47,0,*6C
1505801273.36,44846,13.5,73568.3,-0.77,-5.47,-5.55,0,*69
1505801274.58,44847,13.5,73570.3,-0.75,-5.51,-5.51,0,*69
1505801275.81,44848,13.5,73566.8,-0.75,-5.51,-5.55,0,*62
1505801277.04,44849,13.5,73568.3,-0.77,-5.73,-5.73,0,*65
1505801278.29,44850,13.5,73566.5,-0.75,-5.55,-5.61,0,*68
1505801279.48,44851,13.5,73568.5,-0.77,-5.35,-5.43,0,*6D
1505801280.72,44852,13.5,73568.0,-0.75,-5.31,-5.39,0,*65
1505801282.0,44853,13.5,73568.3,-0.75,-5.31,-5.31,0,*6C
1505801283.27,44854,13.5,73566.8,-0.75,-5.27,-5.31,0,*6C
1505801284.54,44855,13.5,73570.0,-0.75,-5.27,-5.31,0,*6D
1505801285.73,44856,13.5,73566.8,-0.77,-5.35,-5.47,0,*6E
1505801286.91,44857,13.5,73566.5,-0.77,-5.43,-5.47,0,*6E
1505801288.1,44858,13.5,73570.5,-0.77,-5.35,-5.39,0,*69
1505801289.32,44859,13.5,73570.8,-0.73,-5.31,-5.39,0,*68
1505801290.56,44860,13.5,73568.5,-0.75,-5.31,-5.39,0,*64
1505801291.75,44861,13.5,73566.5,-0.77,-5.35,-5.43,0,*6E
1505801293.02,44862,13.5,73570.3,-0.75,-5.27,-5.31,0,*69
1505801294.26,44863,13.5,73568.3,-0.77,-5.31,-5.31,0,*6D
1505801295.54,44864,13.5,73570.3,-0.75,-5.19,-5.27,0,*65
1505801296.81,44865,13.5,73568.5,-0.75,-5.19,-5.31,0,*63
1505801298.08,44866,13.5,73568.5,-0.75,-5.19,-5.31,0,*60
1505801299.27,44867,13.5,73570.8,-0.77,-5.35,-5.43,0,*68
1505801300.51,44868,13.5,73568.3,-0.75,-5.31,-5.39,0,*6C
1505801301.75,44869,13.56,73570.3,-0.75,-5.27,-5.39,0,*6A
1505801303.0,44870,13.56,73568.5,-0.75,-5.31,-5.43,0,*68
1505801304.22,44871,13.5,73568.0,-0.77,-5.47,-5.61,0,*6A
1505801305.44,44872,13.5,73570.0,-0.75,-5.39,-5.51,0,*61
1505801306.66,44873,13.56,73570.3,-0.75,-5.39,-5.51,0,*60
1505801307.88,44874,13.5,73566.8,-0.77,-5.55,-5.65,0,*68
1505801309.11,44875,13.56,73570.8,-0.75,-5.55,-5.55,0,*68
1505801310.32,44876,13.5,73570.8,-0.75,-5.39,-5.43,0,*66
1505801311.54,44877,13.56,73568.5,-0.75,-5.43,-5.55,0,*6D